Погода в Булгаково

Россия / Республика Башкортостан     54°29′27″N   55°53′14″E
темп.,
°C
ветер,
м/с
пор.,
м/с
влажн.,
%
обл.,
%
осадки,
мм/ч
давл.,
гПа
погр.,
м
8 марта, пн
пн823:00−16юз349569 0.0 101248
02:00−17ю45965 0.0 101188
05:00−15ю6129249 0.0 1008278
08:00−10ю91691100 0.6 1004729
11:00−6ююз111791100 1.5 10021193
14:00−3юз111688100 0.4 10011182
17:00−2юз101787100 0.7 10021392
20:00−5юз6138097 0.2 1005318
9 марта, вт
вт923:00−6ююз488998 0.2 1005192
02:00−3ююз71296100 1.8 1003793
05:00−3юз91691100 2.6 10011002
08:00−8юз8178247 0.3 1004746
11:00−8зюз689068 0.3 1009475
14:00−6юз358834 0.0 1011417
17:00−6ююз349162 0.0 1011263
20:00−11ю119095 0.0 101021
10 марта, ср
ср1023:00−9всв239298 0.0 100945
02:00−8св4796100 0.4 1005247
05:00−7св4796100 3.3 1001269
08:00−8с5796100 3.5 999264
11:00−8сз91394100 6.2 999726
14:00−12зсз91393100 1.6 1002759
17:00−14зсз81293100 2.5 1004742
20:00−16сз71194100 0.6 1007697
11 марта, чт
чт1123:00−18сз61195100 1.0 1010624
02:00−19сз61196100 0.3 1011551
05:00−20сз51096100 0.5 1013504
08:00−22сз5996100 0.3 1015469
11:00−21сз5893100 0.3 1016441
14:00−19з459198 0.0 1017430
17:00−17з579199 0.1 1018602
20:00−18з3896100 0.1 1019265
12 марта, пт
пт1223:00−17зюз5995100 0.3 1020331
02:00−17зюз5896100 0.9 1020370
05:00−16юз4796100 1.3 1020215
08:00−14юз4796100 0.5 1022239
11:00−11зсз6892100 0.9 1024502
14:00−12зсз5790100 0.1 1025516
17:00−11зсз478799 0.1 1026547
20:00−16з339332 0.0 102820